Location: Capel Gartheli
(52.1833°N, 4.0667°W)
Time: 00:15:36
(UTC+00:00)

STARLINK-1194 - Pass Details

Date: 18 February 2020
Orbit: 379 x 380 km, 53.0° (Epoch: 09 April)

Event Time Altitude Azimuth Distance (km) Brightness Sun altitude
Exits shadow 05:18:17 69° 42° (NE) 423 3.1 -20.3°
Drops below altitude 10° 05:21:14 10° 84° (E) 1,423 7.0 -19.9°
Sets 05:23:18 0° 86° (E) 2,277 8.4 -19.5°
